Flag for Germany Weather past 2 weeks in Freiberg, Saxony, Germany

Now
66 °F

Passing clouds.


Feels Like: 66 °F
Forecast: 48 / 64 °F
Wind: 7 mph from Southwest

Location: Dresden-Klotzsche

Current Time: May 28, 2015 at 6:55:38 PM

Latest Report: May 28, 2015 at 6:20 PM


Visibility: N/A

Pressure: 29.92 "Hg

Humidity: 37%

Dew point: 39 °F

Location of FreibergLocation

Historic Weather in Freiberg — Graph

°F

Freiberg temperature yesterday

Maximum temperature yesterday: 54 °F (at 2:20 PM)
Minimum temperature yesterday: 45 °F (at 5:20 AM)
Average temperature yesterday: 50 °F

Past Weeks' High & Low Weather Summary

 TemperatureHumidityPressure
High70 °F (May 18, 3:20 PM)100% (May 15, 4:20 AM)30.33 "Hg (May 15, 4:20 AM)
Low37 °F (May 15, 4:20 AM)32% (May 22, 2:20 PM)29.65 "Hg (May 19, 1:20 AM)
Average55 °F64%30.02 "Hg
* Reported May 13 5:20 PM — May 28 5:20 PM, Freiberg, Weather by CustomWeather, © 2015

Note: Actual official high and low records may vary slightly from our data, if they occured in-between our weather recording intervals... More about our weather records

Advertising

Freiberg weather history for previous 24 hours

 ConditionsComfort  
Time TempWeatherWind HumidityBarometerVisibility
5:20 PM
Thu, May 28
66 °FPassing clouds.6 mph37%29.92 "HgN/A
4:50 PM66 °FPassing clouds.9 mph37%29.92 "HgN/A
4:20 PM66 °FPassing clouds.9 mph35%29.95 "HgN/A
3:50 PM66 °FPassing clouds.9 mph35%29.95 "HgN/A
3:20 PM66 °FPassing clouds.8 mph37%29.95 "HgN/A
2:50 PM64 °FPassing clouds.10 mph32%29.98 "HgN/A
2:20 PM64 °FPassing clouds.7 mph34%29.98 "HgN/A
1:50 PM61 °FPassing clouds.8 mph39%29.98 "HgN/A
1:20 PM63 °FPassing clouds.8 mph37%30.01 "HgN/A
12:50 PM59 °FPassing clouds.10 mph39%30.01 "HgN/A
12:20 PM61 °FBroken clouds.12 mph39%30.01 "HgN/A
11:50 AM59 °FPassing clouds.9 mph39%30.04 "HgN/A
11:20 AM59 °FPassing clouds.12 mph42%30.04 "HgN/A
10:50 AM57 °FPassing clouds.9 mph41%30.04 "HgN/A
10:20 AM59 °FPassing clouds.10 mph42%30.07 "HgN/A
9:50 AM57 °FPartly sunny.10 mph44%30.07 "HgN/A
9:20 AM55 °FPartly sunny.12 mph47%30.07 "HgN/A
8:50 AM55 °FPassing clouds.8 mph51%30.07 "HgN/A
8:20 AM54 °FPassing clouds.9 mph63%30.07 "HgN/A
7:50 AM52 °FSunny.7 mph67%30.07 "Hg10 mi
7:20 AM50 °FSunny.7 mph76%30.07 "Hg10 mi
6:50 AM48 °FSunny.7 mph82%30.07 "Hg10 mi
6:20 AM46 °FSunny.6 mph82%30.07 "Hg10 mi
5:20 AM43 °FClear.5 mph87%30.07 "Hg10 mi
4:50 AM43 °FClear.6 mph87%30.09 "Hg10 mi
4:20 AM45 °FClear.6 mph81%30.09 "Hg10 mi
3:50 AM46 °FClear.5 mph82%30.09 "Hg10 mi
3:20 AM46 °FClear.5 mph82%30.09 "Hg10 mi
2:50 AM46 °FClear.2 mph82%30.09 "Hg10 mi
2:20 AM46 °FClear.3 mph82%30.09 "Hg10 mi
1:50 AM46 °FClear.5 mph76%30.09 "Hg10 mi
1:20 AM46 °FClear.5 mph82%30.09 "Hg10 mi
12:50 AM48 °FClear.5 mph76%30.12 "Hg10 mi
12:20 AM50 °FClear.3 mph71%30.12 "Hg10 mi
11:50 PM
Wed, May 27
50 °FClear.3 mph71%30.12 "Hg10 mi
11:20 PM50 °FClear.3 mph71%30.12 "Hg10 mi
10:50 PM50 °FPassing clouds.5 mph76%30.12 "HgN/A
10:20 PM50 °FClear.5 mph76%30.12 "Hg10 mi
9:50 PM50 °FPassing clouds.3 mph76%30.12 "HgN/A
9:20 PM50 °FPassing clouds.3 mph76%30.12 "HgN/A
8:50 PM50 °FPassing clouds.3 mph76%30.12 "HgN/A
8:20 PM52 °FPartly sunny.3 mph67%30.12 "HgN/A
7:50 PM52 °FPartly sunny.6 mph67%30.12 "HgN/A
7:20 PM52 °FBroken clouds.7 mph62%30.12 "HgN/A
6:50 PM52 °FPartly sunny.8 mph67%30.12 "HgN/A
6:20 PM54 °FPartly sunny.9 mph63%30.12 "HgN/A
Weather by CustomWeather, © 2015

See weather overviewHow to use our weather pages